Regional Weather Roundup
Issued by NWS Goodland, KS

Home | Current Version | Previous Version | Text Only | Print | Product List | Glossary Off
Versions: 1 2 3 4 5 6 7 8 9 10 11 12 13 14 15 16 17 18 19 20 21 22 23 24 25 26 27 28 29 30 31 32 33 34 35 36 37 38 39 40 41 42 43 44 45 46 47 48 49 50

000
ASUS43 KGLD 271059
RWRGLD

GOODLAND FORECAST AREA HOURLY WEATHER ROUNDUP
NATIONAL WEATHER SERVICE GOODLAND KS
500 AM MDT WED JUL 27 2016

...OFFICIAL OBSERVATIONS...

CITY           SKY/WX    TMP DP  RH WIND       PRES   REMARKS
GOODLAND KS    PTCLDY    62  59  90 E12       30.11S
HILL CITY KS   CLOUDY    66  61  84 E3        30.05F
IMPERIAL NEB   PTCLDY    61  58  90 CALM      30.13R
MCCOOK NEB     CLOUDY    62  58  86 CALM      30.06F
AKRON CO       CLEAR     61  55  81 SE12      30.15R
BURLINGTON CO  CLOUDY    66  55  67 E9        30.14F
LIMON CO       NOT AVBL
$$

...UNOFFICIAL OBSERVATIONS...

CITY           SKY/WX    TMP DP  RH WIND       PRES   REMARKS
COLBY KS       CLEAR     63  63 100 E6        30.11F
LENORA KS        N/A     65  32  29 MISG        N/A
NORTON KS      CLEAR     64  55  72 S3        30.02F
YUMA CO          N/A     61  57  87 SE5G12      N/A
$$




USA.gov is the U.S. government's official web portal to all federal, state and local government web resources and services.